{"data":{"norad_id":56823,"epoch":"2026-05-25T01:09:43.340256Z","epoch_age_seconds":70629,"freshness":"FRESH","line1":"1 56823U 23079A   26145.04841829  .00000302  00000+0  20510-4 0  9995","line2":"2 56823  43.0031  36.0505 0001257 271.9999  88.0708 15.27572066164998","mean_motion":15.27572066,"eccentricity":0.0001257,"inclination_deg":43.0031,"raan_deg":36.0505,"arg_perigee_deg":271.9999,"mean_anomaly_deg":88.0708,"bstar":2.051e-5,"rev_number":16499,"period_min":94.267238322228,"perigee_km":482.21039931415,"apogee_km":483.93530747129,"semimajor_km":6861.2098533927,"source":"CELESTRAK","updated_at":"2026-05-25T13:38:18.161887Z"}}